����,�O�C���x,�����t���O,�O�C���x,�����t���O,�󒲎����x,�����t���O,�󒲎����x,�����t���O,��󒲎����x,�����t���O,����,�����t���O
2003/8/1 0:00,24.1,0,81,0,27.9,0,71.1,0,26.3,0,25.3,0
2003/8/1 0:15,24,0,81,0,27.6,0,71.6,0,26.2,0,25.3,0
2003/8/1 0:30,23.8,0,83,0,27.6,0,71,0,26.2,0,25.3,0
2003/8/1 0:45,23.5,0,83,0,27.6,0,70.8,0,26.1,0,25.3,0
2003/8/1 1:00,23.5,0,85,0,27.5,0,71.2,0,26.1,0,25.4,0
2003/8/1 1:15,23.4,0,86,0,27.3,0,71.6,0,26.1,0,25.4,0
2003/8/1 1:30,23.3,0,86,0,27.3,0,72,0,26,0,25,0
2003/8/1 1:45,23.3,0,88,0,27.3,0,71.8,0,26,0,25.1,0
2003/8/1 2:00,23.4,0,87,0,27.3,0,71.7,0,25.9,0,25.1,0
2003/8/1 2:15,23.4,0,87,0,27.3,0,71.9,0,25.8,0,25.1,0
2003/8/1 2:30,23.3,0,86,0,27.2,0,72.1,0,25.8,0,25.1,0
2003/8/1 2:45,23.4,0,86,0,27.2,0,72.2,0,25.7,0,25.1,0
2003/8/1 3:00,23.3,0,87,0,27.1,0,72.2,0,25.7,0,25.2,0
2003/8/1 3:15,23.2,0,87,0,26.9,0,73,0,25.5,0,25.2,0
2003/8/1 3:30,23.1,0,88,0,26.8,0,73.2,0,25.4,0,25.2,0
2003/8/1 3:45,23,0,88,0,26.7,0,73.3,0,25.3,0,25,0
2003/8/1 4:00,23,0,89,0,26.8,0,73.3,0,25.3,0,24.9,0
2003/8/1 4:15,22.9,0,89,0,26.7,0,73.4,0,25.3,0,25,0
2003/8/1 4:30,22.8,0,89,0,26.7,0,73.4,0,25.3,0,25,0
2003/8/1 4:45,22.8,0,89,0,26.6,0,73.5,0,25.3,0,25,0
2003/8/1 5:00,22.8,0,89,0,26.6,0,73.5,0,25.2,0,25,0
2003/8/1 5:15,22.6,0,89,0,26.5,0,73.7,0,25.2,0,25,0
2003/8/1 5:30,22.6,0,90,0,26.5,0,73.9,0,25.2,0,25,0
2003/8/1 5:45,22.7,0,91,0,26.4,0,74.1,0,25.1,0,25,0
2003/8/1 6:00,22.7,0,91,0,26.4,0,74.3,0,25.1,0,25,0
2003/8/1 6:15,22.8,0,90,0,26.4,0,74.5,0,25.1,0,25.1,0
2003/8/1 6:30,23,0,90,0,26.4,0,74.7,0,25.1,0,25.1,0
2003/8/1 6:45,23.2,0,88,0,26.4,0,74.8,0,25.1,0,25.1,0
2003/8/1 7:00,23.5,0,88,0,26.4,0,75,0,25.1,0,25.1,0
2003/8/1 7:15,23.8,0,87,0,26.4,0,75.1,0,25.1,0,25.1,0
2003/8/1 7:30,23.9,0,85,0,26.3,0,76.5,0,25.2,0,25.1,0
2003/8/1 7:45,24.4,0,84,0,26,0,77.5,0,25.2,0,25.1,0
2003/8/1 8:00,24.6,0,81,0,26.1,0,77.5,0,25.2,0,24.9,0
2003/8/1 8:15,25,0,80,0,26.1,0,77.9,0,25.2,0,25,0
2003/8/1 8:30,25.7,0,79,0,26.2,0,77.2,0,25.3,0,25,0
2003/8/1 8:45,26.5,0,75,0,26.4,0,77.2,0,25.4,0,25,0
2003/8/1 9:00,27.3,0,73,0,26.6,0,77.1,0,25.6,0,25,0
2003/8/1 9:15,28.3,0,68,0,26.8,0,77.4,0,25.7,0,25.2,0
2003/8/1 9:30,29.4,0,63,0,27,0,77.3,0,25.9,0,25.2,0
2003/8/1 9:45,31.1,0,59,0,27.3,0,77.3,0,26.1,0,25.2,0
2003/8/1 10:00,31.9,0,55,0,27.4,0,76.8,0,26.2,0,25.2,0
2003/8/1 10:15,32.5,0,52,0,27.6,0,76.4,0,26.4,0,25.3,0
2003/8/1 10:30,33.3,0,49,0,27.7,0,76,0,26.5,0,24.9,0
2003/8/1 10:45,34.2,0,47,0,27.9,0,75.8,0,26.7,0,25,0
2003/8/1 11:00,35,0,43,0,28.2,0,75.3,0,26.8,0,25.1,0
2003/8/1 11:15,35.6,0,43,0,28.2,0,75.4,0,26.9,0,25.1,0
2003/8/1 11:30,34.2,0,45,0,28.4,0,75.8,0,27,0,25.2,0
2003/8/1 11:45,33.2,0,49,0,28.5,0,75.3,0,27.3,0,25.2,0
2003/8/1 12:00,32.9,0,50,0,28.6,0,75.7,0,27.7,0,25.2,0
2003/8/1 12:15,33.1,0,48,0,28.8,0,75.1,0,28.2,0,25.3,0
2003/8/1 12:30,33.2,0,48,0,28.9,0,73.9,0,28.5,0,25.3,0
2003/8/1 12:45,33.2,0,48,0,29,0,73.3,0,28.7,0,25.3,0
2003/8/1 13:00,33.1,0,47,0,29.2,0,72.1,0,28.9,0,25.4,0
2003/8/1 13:15,33.5,0,48,0,29.3,0,71.7,0,29,0,25.4,0
2003/8/1 13:30,33.3,0,48,0,29.7,0,70.1,0,29.1,0,25.5,0
2003/8/1 13:45,33.3,0,47,0,29.8,0,70.4,0,29.3,0,25.3,0
2003/8/1 14:00,33.8,0,47,0,29.9,0,69.2,0,29.4,0,25.3,0
2003/8/1 14:15,33.6,0,45,0,30,0,69.8,0,29.5,0,25.3,0
2003/8/1 14:30,33.6,0,45,0,30.3,0,67.7,0,29.6,0,25.3,0
2003/8/1 14:45,33.5,0,45,0,30.3,0,67.3,0,29.6,0,25.3,0
2003/8/1 15:00,33.7,0,45,0,30.4,0,67,0,29.6,0,25.4,0
2003/8/1 15:15,33.8,0,44,0,30.5,0,67,0,29.7,0,25.4,0
2003/8/1 15:30,33.6,0,45,0,30.6,0,65.7,0,29.8,0,25.5,0
2003/8/1 15:45,33.4,0,46,0,30.5,0,66.6,0,29.8,0,25.5,0
2003/8/1 16:00,33.5,0,45,0,30.5,0,67,0,29.7,0,25.6,0
2003/8/1 16:15,33.3,0,45,0,30.5,0,66.9,0,29.7,0,25.6,0
2003/8/1 16:30,33.2,0,45,0,30.4,0,67.1,0,29.7,0,25.7,0
2003/8/1 16:45,33.2,0,44,0,30.5,0,66.3,0,29.6,0,25.8,0
2003/8/1 17:00,32.9,0,46,0,30.5,0,65.9,0,29.6,0,25.8,0
2003/8/1 17:15,32.5,0,47,0,30.5,0,66.2,0,29.6,0,25.6,0
2003/8/1 17:30,31.9,0,48,0,30.6,0,65.3,0,29.6,0,25.7,0
2003/8/1 17:45,31.6,0,50,0,30.5,0,65.4,0,29.5,0,25.7,0
2003/8/1 18:00,31.1,0,51,0,30.4,0,65.2,0,29.4,0,25.8,0
2003/8/1 18:15,30.6,0,52,0,30.2,0,66,0,29.4,0,25.8,0
2003/8/1 18:30,30.5,0,53,0,30,0,65.6,0,29.3,0,25.9,0
2003/8/1 18:45,30.2,0,53,0,29.9,0,66.2,0,29.2,0,25.9,0
2003/8/1 19:00,29.9,0,55,0,29.8,0,66.8,0,29.1,0,26,0
2003/8/1 19:15,29.6,0,57,0,29.8,0,66.9,0,29.1,0,26,0
2003/8/1 19:30,29.2,0,58,0,29.7,0,67.6,0,29,0,26.1,0
2003/8/1 19:45,29,0,59,0,29.5,0,68.4,0,28.9,0,25.6,0
2003/8/1 20:00,29,0,61,0,29.5,0,68.5,0,28.9,0,25.5,0
2003/8/1 20:15,28.8,0,61,0,29.5,0,68.4,0,28.8,0,25.6,0
2003/8/1 20:30,28.6,0,62,0,29.3,0,68.6,0,28.7,0,25.6,0
2003/8/1 20:45,28.5,0,64,0,29.3,0,69.1,0,28.7,0,25.7,0
2003/8/1 21:00,28.3,0,66,0,29.3,0,69.8,0,28.7,0,25.7,0
2003/8/1 21:15,28.1,0,67,0,29.2,0,70.6,0,28.6,0,25.8,0
2003/8/1 21:30,28,0,68,0,29.2,0,71.1,0,28.6,0,25.8,0
2003/8/1 21:45,27.8,0,68,0,29.1,0,70.2,0,28.6,0,25.9,0
2003/8/1 22:00,27.7,0,68,0,29.1,0,69.9,0,28.5,0,25.9,0
2003/8/1 22:15,27.6,0,68,0,29,0,70.1,0,28.4,0,26,0
2003/8/1 22:30,27.3,0,70,0,28.9,0,70.3,0,28.3,0,26,0
2003/8/1 22:45,27.3,0,71,0,29.1,0,70.2,0,28.2,0,26.1,0
2003/8/1 23:00,27.2,0,72,0,28.8,0,71.8,0,28.1,0,26.1,0
2003/8/1 23:15,27.2,0,72,0,29,0,71.4,0,28.1,0,26.1,0
2003/8/1 23:30,27.1,0,73,0,28.7,0,72.2,0,28.1,0,26.2,0
2003/8/1 23:45,27.1,0,73,0,28.6,0,72.6,0,28.1,0,26.2,0
2003/8/2 0:00,27.1,0,72,0,28.6,0,72.2,0,28.1,0,26.3,0
2003/8/2 0:15,27.1,0,72,0,28.7,0,71.9,0,28.1,0,26.3,0
2003/8/2 0:30,27.1,0,72,0,28.7,0,71.9,0,28,0,26.3,0
2003/8/2 0:45,27.2,0,71,0,28.7,0,71.6,0,28,0,26.4,0
2003/8/2 1:00,27.3,0,71,0,28.8,0,71.4,0,28,0,26.4,0
2003/8/2 1:15,27.2,0,72,0,28.8,0,71.8,0,28,0,26.4,0
2003/8/2 1:30,27.3,0,72,0,28.9,0,71.6,0,28,0,26.5,0
2003/8/2 1:45,27.1,0,73,0,29,0,71.4,0,28,0,26.5,0
2003/8/2 2:00,27,0,74,0,29.1,0,71.4,0,28,0,26.6,0
2003/8/2 2:15,27,0,74,0,29,0,71.2,0,28,0,26.6,0
2003/8/2 2:30,27.1,0,74,0,29.1,0,71.3,0,28,0,26.6,0
2003/8/2 2:45,27.2,0,74,0,29,0,71.7,0,27.9,0,26.6,0
2003/8/2 3:00,27.3,0,74,0,28.9,0,72.1,0,27.9,0,25.5,0
2003/8/2 3:15,27.2,0,75,0,28.8,0,72.5,0,27.9,0,25.5,0
2003/8/2 3:30,27.2,0,75,0,28.9,0,72.4,0,27.9,0,25.6,0
2003/8/2 3:45,27.1,0,77,0,29,0,71.9,0,27.9,0,25.6,0
2003/8/2 4:00,27.1,0,79,0,29,0,72.2,0,27.9,0,25.7,0
2003/8/2 4:15,27.2,0,79,0,29,0,72.4,0,27.8,0,25.7,0
2003/8/2 4:30,27.1,0,80,0,29,0,72.7,0,27.8,0,25.8,0
2003/8/2 4:45,27.1,0,80,0,28.9,0,73,0,27.8,0,25.8,0
2003/8/2 5:00,27.1,0,80,0,28.9,0,73.3,0,27.7,0,25.8,0
2003/8/2 5:15,27.1,0,81,0,28.9,0,73.7,0,27.7,0,25.9,0
2003/8/2 5:30,27.1,0,82,0,28.9,0,73.5,0,27.7,0,25.9,0
2003/8/2 5:45,27,0,82,0,28.9,0,73.7,0,27.7,0,25.9,0
2003/8/2 6:00,27,0,82,0,28.9,0,74.4,0,27.7,0,26,0
2003/8/2 6:15,27,0,82,0,28.8,0,75.7,0,27.7,0,26,0
2003/8/2 6:30,27.1,0,82,0,28.7,0,76,0,27.7,0,26.1,0
2003/8/2 6:45,27.2,0,81,0,28.6,0,76.4,0,27.7,0,25.6,0
2003/8/2 7:00,27.3,0,81,0,28.6,0,76.4,0,27.7,0,25.7,0
2003/8/2 7:15,27.4,0,79,0,28.5,0,76.5,0,27.7,0,25.7,0
2003/8/2 7:30,27.7,0,79,0,28.6,0,76.1,0,27.7,0,25.8,0
2003/8/2 7:45,27.9,0,77,0,28.6,0,76.5,0,27.8,0,25.6,0
2003/8/2 8:00,28.2,0,76,0,28.6,0,76.1,0,27.9,0,25.7,0
2003/8/2 8:15,28.5,0,74,0,28.7,0,75.9,0,27.9,0,25.7,0
2003/8/2 8:30,29,0,72,0,28.8,0,75.8,0,28,0,25.6,0
2003/8/2 8:45,29.5,0,68,0,28.9,0,75.4,0,28.1,0,25.6,0
2003/8/2 9:00,29.8,0,65,0,28.9,0,74.9,0,28.2,0,25.7,0
2003/8/2 9:15,30.5,0,61,0,29,0,73.9,0,28.3,0,25.7,0
2003/8/2 9:30,31.6,0,58,0,29.1,0,73.1,0,28.4,0,25.7,0
2003/8/2 9:45,32.6,0,53,0,29.1,0,72.3,0,28.5,0,25.8,0
2003/8/2 10:00,33.5,0,50,0,29.3,0,71,0,28.6,0,25.8,0
2003/8/2 10:15,34,0,47,0,29.4,0,71.1,0,28.7,0,25.9,0
2003/8/2 10:30,34.5,0,46,0,29.6,0,70.2,0,28.7,0,25.7,0
2003/8/2 10:45,34.6,0,45,0,29.7,0,69.1,0,28.8,0,25.8,0
2003/8/2 11:00,35.3,0,44,0,29.8,0,68.3,0,28.8,0,25.8,0
2003/8/2 11:15,36.1,0,41,0,30,0,68.4,0,28.9,0,25.8,0
2003/8/2 11:30,36.4,0,38,0,30.3,0,65.7,0,29,0,25.9,0
2003/8/2 11:45,36.7,0,38,0,30.5,0,64.6,0,29.1,0,25.9,0
2003/8/2 12:00,36.5,0,39,0,30.8,0,61.5,0,29.2,0,26,0
2003/8/2 12:15,36.2,0,36,0,31.3,0,60.6,0,29.3,0,26,0
2003/8/2 12:30,35.9,0,35,0,31.5,0,58.3,0,29.4,0,26.1,0
2003/8/2 12:45,35.8,0,35,0,31.8,0,57.3,0,29.5,0,26.1,0
2003/8/2 13:00,35.9,0,37,0,32,0,55.5,0,29.6,0,25.8,0
2003/8/2 13:15,36.1,0,36,0,32.1,0,55.3,0,29.6,0,25.9,0
2003/8/2 13:30,36.2,0,34,0,32,0,56.4,0,29.7,0,25.7,0
2003/8/2 13:45,36.4,0,35,0,32.3,0,54.7,0,29.8,0,25.7,0
2003/8/2 14:00,36.4,0,35,0,32.7,0,53.8,0,30,0,25.8,0
2003/8/2 14:15,35.3,0,41,0,32.3,0,59.3,0,30.1,0,25.9,0
2003/8/2 14:30,35,0,42,0,32.2,0,61,0,30.2,0,25.9,0
2003/8/2 14:45,35.2,0,43,0,32.2,0,61.2,0,30.4,0,25.9,0
2003/8/2 15:00,35.6,0,41,0,32.4,0,61.7,0,30.5,0,26,0
2003/8/2 15:15,35.2,0,42,0,32.4,0,61.9,0,30.6,0,26.1,0
2003/8/2 15:30,34.9,0,43,0,32.4,0,61.8,0,30.7,0,26.1,0
2003/8/2 15:45,35,0,43,0,32.4,0,61.8,0,30.8,0,26.2,0
2003/8/2 16:00,34.7,0,44,0,32.5,0,61.9,0,30.9,0,26.2,0
2003/8/2 16:15,34.3,0,44,0,32.5,0,62.5,0,30.9,0,26.3,0
2003/8/2 16:30,33.8,0,45,0,32.3,0,61.6,0,30.9,0,26.4,0
2003/8/2 16:45,33.8,0,45,0,32.4,0,61.4,0,30.9,0,26.4,0
2003/8/2 17:00,33.5,0,46,0,32.4,0,61.3,0,30.8,0,26.5,0
2003/8/2 17:15,33.1,0,47,0,32.3,0,61.7,0,30.8,0,26.5,0
2003/8/2 17:30,33.1,0,47,0,32.3,0,61.6,0,30.8,0,26.6,0
2003/8/2 17:45,32.9,0,48,0,32.3,0,61.3,0,30.8,0,26.6,0
2003/8/2 18:00,32.4,0,49,0,32.2,0,61.1,0,30.7,0,26.7,0
2003/8/2 18:15,32.1,0,50,0,32.2,0,61,0,30.6,0,26.8,0
2003/8/2 18:30,31.9,0,50,0,32.1,0,61.2,0,30.5,0,26.8,0
2003/8/2 18:45,31.4,0,52,0,32,0,60.8,0,30.5,0,26.9,0
2003/8/2 19:00,31,0,53,0,31.9,0,61.2,0,30.4,0,26.3,0
2003/8/2 19:15,30.6,0,56,0,31.8,0,61.2,0,30.3,0,26.4,0
2003/8/2 19:30,30,0,58,0,31.5,0,63.6,0,30.3,0,26.4,0
2003/8/2 19:45,29.8,0,60,0,31.4,0,64.5,0,30.2,0,26.5,0
2003/8/2 20:00,29.6,0,61,0,31.2,0,64.5,0,30.1,0,26.5,0
2003/8/2 20:15,29.3,0,63,0,31.1,0,64.4,0,30,0,26.6,0
2003/8/2 20:30,29.1,0,63,0,31.1,0,64.7,0,29.9,0,25.6,0
2003/8/2 20:45,29,0,63,0,30.8,0,65.2,0,29.8,0,25.7,0
2003/8/2 21:00,29,0,64,0,30.6,0,65.5,0,29.7,0,25.7,0
2003/8/2 21:15,28.9,0,64,0,30.4,0,65.6,0,29.7,0,25.8,0
2003/8/2 21:30,28.7,0,65,0,30.3,0,66.9,0,29.7,0,25.8,0
2003/8/2 21:45,28.8,0,65,0,30,0,67.8,0,29.6,0,25.9,0
2003/8/2 22:00,28.7,0,65,0,29.9,0,68.4,0,29.6,0,26,0
2003/8/2 22:15,28.7,0,65,0,29.8,0,68.8,0,29.5,0,26,0
2003/8/2 22:30,28.6,0,66,0,29.8,0,69.1,0,29.4,0,26,0
2003/8/2 22:45,28.5,0,67,0,29.8,0,69.1,0,29.4,0,26,0
2003/8/2 23:00,28.4,0,67,0,29.6,0,69.9,0,29.4,0,26.1,0
2003/8/2 23:15,28.5,0,69,0,29.9,0,68.8,0,29.3,0,26.1,0
2003/8/2 23:30,28.7,0,69,0,30,0,69.9,0,29.3,0,26.2,0
2003/8/2 23:45,28.6,0,70,0,29.8,0,71.1,0,29.2,0,26.2,0
2003/8/3 0:00,28.6,0,71,0,29.8,0,71.8,0,29.2,0,26.3,0
2003/8/3 0:15,28.5,0,71,0,29.7,0,72.2,0,29.2,0,26.3,0
2003/8/3 0:30,28.5,0,72,0,29.7,0,72.7,0,29.1,0,26.4,0
2003/8/3 0:45,28.4,0,72,0,29.6,0,72.6,0,29.1,0,26.4,0
2003/8/3 1:00,28.3,0,73,0,29.5,0,72.7,0,29.1,0,26.5,0
2003/8/3 1:15,28.2,0,73,0,29.5,0,73,0,29,0,26.5,0
2003/8/3 1:30,28.1,0,74,0,29.4,0,73.4,0,28.9,0,26.6,0
2003/8/3 1:45,28,0,75,0,29.2,0,74.1,0,28.8,0,26.6,0
2003/8/3 2:00,27.9,0,76,0,29.2,0,74.5,0,28.7,0,26.7,0
2003/8/3 2:15,27.8,0,76,0,29.1,0,74.5,0,28.7,0,26.7,0
2003/8/3 2:30,27.6,0,77,0,29.1,0,75.1,0,28.6,0,26.8,0
2003/8/3 2:45,27.6,0,77,0,29,0,75.1,0,28.6,0,26.8,0
2003/8/3 3:00,27.5,0,77,0,28.9,0,75.6,0,28.5,0,26.8,0
2003/8/3 3:15,27.4,0,77,0,28.9,0,74.5,0,28.4,0,26.9,0
2003/8/3 3:30,27.3,0,77,0,29,0,73.7,0,28.4,0,26.9,0
2003/8/3 3:45,27.3,0,77,0,29,0,73.3,0,28.4,0,26.9,0
2003/8/3 4:00,27.1,0,77,0,29,0,73.3,0,28.4,0,27,0
2003/8/3 4:15,27.2,0,75,0,29,0,72.5,0,28.4,0,27,0
2003/8/3 4:30,27.2,0,74,0,29,0,71.8,0,28.4,0,27.1,0
2003/8/3 4:45,27.1,0,74,0,28.9,0,71.7,0,28.4,0,27.1,0
2003/8/3 5:00,27.1,0,74,0,28.9,0,71.5,0,28.4,0,27.1,0
2003/8/3 5:15,27.1,0,74,0,28.9,0,71.4,0,28.4,0,27.2,0
2003/8/3 5:30,27,0,73,0,28.8,0,71.4,0,28.4,0,27.2,0
2003/8/3 5:45,27,0,74,0,28.8,0,71.1,0,28.4,0,26.6,0
2003/8/3 6:00,26.9,0,74,0,28.8,0,71.4,0,28.3,0,26.6,0
2003/8/3 6:15,26.9,0,76,0,28.7,0,72,0,28.3,0,26.7,0
2003/8/3 6:30,27,0,76,0,28.7,0,72.2,0,28.3,0,26.7,0
2003/8/3 6:45,27,0,77,0,28.6,0,73.3,0,28.2,0,26.7,0
2003/8/3 7:00,27.3,0,76,0,28.6,0,74.5,0,28.2,0,26.8,0
2003/8/3 7:15,27.4,0,76,0,28.3,0,75.7,0,28.2,0,26.8,0
2003/8/3 7:30,27.7,0,75,0,28.2,0,76.8,0,28.2,0,26.8,0
2003/8/3 7:45,28,0,74,0,28.2,0,77.2,0,28.2,0,26.4,0
2003/8/3 8:00,28.3,0,73,0,28.3,0,76.7,0,28.2,0,26.4,0
2003/8/3 8:15,28.6,0,72,0,28.5,0,76.8,0,28.3,0,26.5,0
2003/8/3 8:30,29,0,71,0,28.6,0,76.2,0,28.4,0,26.5,0
2003/8/3 8:45,29.2,0,68,0,28.7,0,76.4,0,28.5,0,26.5,0
2003/8/3 9:00,29.7,0,65,0,28.9,0,75.8,0,28.6,0,26.6,0
2003/8/3 9:15,30.3,0,64,0,29.1,0,74.9,0,28.6,0,26.6,0
2003/8/3 9:30,31.6,0,60,0,29.2,0,74.7,0,28.7,0,26.6,0
2003/8/3 9:45,32.6,0,56,0,29.3,0,74.4,0,28.8,0,26.7,0
2003/8/3 10:00,33.3,0,53,0,29.4,0,73.7,0,28.9,0,26.7,0
2003/8/3 10:15,34.1,0,50,0,29.5,0,73.4,0,29,0,26.7,0
2003/8/3 10:30,34.5,0,49,0,29.7,0,72.7,0,29.2,0,26.8,0
2003/8/3 10:45,35,0,46,0,29.9,0,71.4,0,29.3,0,26.8,0
2003/8/3 11:00,35.6,0,44,0,30.1,0,70.5,0,29.4,0,26.8,0
2003/8/3 11:15,35.8,0,43,0,30.4,0,69.6,0,29.6,0,26.9,0
2003/8/3 11:30,36.4,0,41,0,30.5,0,69.1,0,29.7,0,26.3,0
2003/8/3 11:45,36.9,0,41,0,30.7,0,67.9,0,29.8,0,26.4,0
2003/8/3 12:00,37.2,0,39,0,30.9,0,68,0,29.9,0,26.4,0
2003/8/3 12:15,36.4,0,40,0,31.1,0,65.7,0,30,0,26.4,0
2003/8/3 12:30,35.6,0,41,0,31.1,0,64.7,0,30.1,0,26.5,0
2003/8/3 12:45,35.1,0,41,0,31.2,0,64.5,0,30.2,0,26.4,0
2003/8/3 13:00,34.9,0,43,0,31.1,0,65.4,0,30.2,0,26.4,0
2003/8/3 13:15,35.4,0,41,0,31.1,0,66,0,30.1,0,26.5,0
2003/8/3 13:30,34.8,0,43,0,31,0,66.4,0,30.1,0,26.5,0
2003/8/3 13:45,35.3,0,44,0,31,0,67.1,0,30.2,0,26.6,0
2003/8/3 14:00,35.7,0,43,0,31.1,0,67.7,0,30.2,0,26.6,0
2003/8/3 14:15,36.3,0,41,0,31.6,0,66.1,0,30.3,0,26.6,0
2003/8/3 14:30,35.5,0,42,0,31.7,0,65.4,0,30.5,0,26.7,0
2003/8/3 14:45,35.3,0,42,0,31.7,0,65.2,0,30.6,0,26.7,0
2003/8/3 15:00,35.3,0,43,0,31.8,0,65.1,0,30.7,0,26.8,0
2003/8/3 15:15,35.5,0,41,0,31.9,0,64.4,0,30.8,0,26.8,0
2003/8/3 15:30,35.7,0,41,0,32.1,0,63.5,0,30.8,0,26.9,0
2003/8/3 15:45,35.8,0,41,0,32.2,0,62.9,0,30.9,0,26.9,0
2003/8/3 16:00,35.7,0,40,0,32.4,0,61.9,0,31,0,27,0
2003/8/3 16:15,35.3,0,39,0,32.5,0,61.7,0,31.1,0,27,0
2003/8/3 16:30,35.3,0,41,0,32.5,0,60.8,0,31.1,0,27.1,0
2003/8/3 16:45,34.9,0,41,0,32.6,0,59.8,0,31.1,0,27.1,0
2003/8/3 17:00,34.5,0,42,0,32.5,0,61,0,31.2,0,27.2,0
2003/8/3 17:15,34,0,42,0,32.5,0,59.7,0,31.2,0,27.2,0
2003/8/3 17:30,33.5,0,42,0,32.4,0,59,0,31.1,0,27.3,0
2003/8/3 17:45,32.9,0,45,0,32.3,0,59.3,0,31.1,0,27.3,0
2003/8/3 18:00,32.6,0,48,0,32.2,0,60.7,0,31,0,27.3,0
2003/8/3 18:15,31.8,0,49,0,32.1,0,61.2,0,31,0,27.4,0
2003/8/3 18:30,31.4,0,50,0,32,0,61.2,0,30.9,0,27.4,0
2003/8/3 18:45,31.2,0,52,0,31.9,0,61.3,0,30.8,0,27.5,0
2003/8/3 19:00,31,0,54,0,31.8,0,61.9,0,30.7,0,27.5,0
2003/8/3 19:15,30.7,0,56,0,31.7,0,62.6,0,30.6,0,27.6,0
2003/8/3 19:30,30.3,0,58,0,31.7,0,63.2,0,30.5,0,26.9,0
2003/8/3 19:45,30.2,0,59,0,31.5,0,63.6,0,30.5,0,26.6,0
2003/8/3 20:00,29.9,0,61,0,29.8,0,58.1,0,30.4,0,26.7,0
2003/8/3 20:15,29.7,0,62,0,29.3,0,54.7,0,30.3,0,26.7,0
2003/8/3 20:30,29.6,0,62,0,28.8,0,53.5,0,30.3,0,26.8,0
2003/8/3 20:45,29.5,0,64,0,28,0,59.3,0,30.2,0,26.8,0
2003/8/3 21:00,29.4,0,64,0,28.1,0,63.1,0,30.2,0,26.8,0
2003/8/3 21:15,29.3,0,65,0,28.3,0,65.1,0,30.2,0,26.9,0
2003/8/3 21:30,29.1,0,68,0,28.2,0,63.3,0,30.1,0,26.9,0
2003/8/3 21:45,29.1,0,69,0,28,0,62.3,0,30,0,27,0
2003/8/3 22:00,29,0,70,0,27.7,0,62.1,0,30,0,27,0
2003/8/3 22:15,29,0,71,0,27.8,0,62.2,0,29.9,0,27.1,0
2003/8/3 22:30,28.9,0,70,0,27.6,0,61.9,0,29.9,0,26.7,0
2003/8/3 22:45,29,0,70,0,27.5,0,62.1,0,29.8,0,26.7,0
2003/8/3 23:00,29.1,0,71,0,27.3,0,61.9,0,29.8,0,26.8,0
2003/8/3 23:15,29,0,72,0,27.3,0,61.8,0,29.7,0,26.8,0
2003/8/3 23:30,28.8,0,72,0,27.1,0,62.3,0,29.6,0,26.9,0
2003/8/3 23:45,28.8,0,73,0,27,0,62.1,0,29.6,0,26.9,0
2003/8/4 0:00,28.7,0,74,0,26.7,0,63,0,29.6,0,26.6,0
2003/8/4 0:15,28.7,0,74,0,26.6,0,63.4,0,29.5,0,26.7,0
2003/8/4 0:30,28.5,0,74,0,28.6,0,63.8,0,29.4,0,26.7,0
2003/8/4 0:45,28.4,0,75,0,29.1,0,66,0,29.4,0,26.7,0
2003/8/4 1:00,28.3,0,75,0,29.3,0,67.6,0,29.3,0,26.8,0
2003/8/4 1:15,28.3,0,73,0,29.5,0,68.5,0,29.3,0,26.8,0
2003/8/4 1:30,28.3,0,73,0,29.7,0,69,0,29.3,0,26.9,0
2003/8/4 1:45,28.3,0,74,0,29.2,0,71.8,0,29.2,0,26.9,0
2003/8/4 2:00,28.2,0,75,0,29.1,0,73.8,0,29.2,0,26.9,0
2003/8/4 2:15,28.1,0,76,0,29,0,74.5,0,29.1,0,27,0
2003/8/4 2:30,28,0,77,0,28.9,0,75.9,0,29.1,0,27,0
2003/8/4 2:45,28,0,78,0,28.9,0,75.7,0,29.1,0,26.7,0
2003/8/4 3:00,27.9,0,79,0,28.9,0,76.4,0,29.1,0,26.7,0
2003/8/4 3:15,27.8,0,79,0,28.9,0,77.3,0,29,0,26.8,0
2003/8/4 3:30,27.8,0,80,0,28.8,0,77.6,0,29,0,26.8,0
2003/8/4 3:45,27.7,0,81,0,28.7,0,78.4,0,28.9,0,26.8,0
2003/8/4 4:00,27.8,0,80,0,28.8,0,76.8,0,28.9,0,26.9,0
2003/8/4 4:15,27.7,0,81,0,28.8,0,77.6,0,28.9,0,26.9,0
2003/8/4 4:30,27.6,0,82,0,28.8,0,77.8,0,28.9,0,26.9,0
2003/8/4 4:45,27.5,0,82,0,28.7,0,77.7,0,28.9,0,27,0
2003/8/4 5:00,27.4,0,83,0,28.7,0,78.4,0,28.8,0,27,0
2003/8/4 5:15,27.4,0,84,0,28.6,0,79,0,28.8,0,27,0
2003/8/4 5:30,27.4,0,83,0,28.6,0,79,0,28.8,0,27.1,0
2003/8/4 5:45,27.3,0,84,0,28.6,0,78.7,0,28.7,0,27.1,0
2003/8/4 6:00,27.2,0,84,0,28.5,0,79,0,28.7,0,27.1,0
2003/8/4 6:15,27.2,0,84,0,28.5,0,79,0,28.7,0,27.1,0
2003/8/4 6:30,27.2,0,83,0,28.4,0,78.9,0,28.7,0,27.2,0
2003/8/4 6:45,27.3,0,83,0,28.4,0,79.1,0,28.6,0,27.2,0
2003/8/4 7:00,27.5,0,81,0,28.4,0,78.9,0,28.6,0,27.2,0
2003/8/4 7:15,27.6,0,81,0,28.3,0,79.7,0,28.6,0,27,0
2003/8/4 7:30,27.9,0,80,0,28.3,0,79.6,0,28.6,0,27,0
2003/8/4 7:45,28.2,0,78,0,28.4,0,79.5,0,28.6,0,27.1,0
2003/8/4 8:00,28.5,0,76,0,28.4,0,79,0,28.6,0,27.1,0
2003/8/4 8:15,28.7,0,74,0,28.5,0,78,0,28.4,0,27.1,0
2003/8/4 8:30,29,0,73,0,28.6,0,77.7,0,28.3,0,27.1,0
2003/8/4 8:45,29.5,0,69,0,28.6,0,77.1,0,28.3,0,27.2,0
2003/8/4 9:00,29.9,0,67,0,28.7,0,77.1,0,28.4,0,27.2,0
2003/8/4 9:15,30.9,0,65,0,28.9,0,76.7,0,28.5,0,27.2,0
2003/8/4 9:30,31.9,0,62,0,29,0,76.5,0,28.8,0,27.2,0
2003/8/4 9:45,33.2,0,56,0,29.2,0,76.4,0,29,0,26.7,0
2003/8/4 10:00,34.5,0,53,0,29.4,0,75.7,0,29.3,0,26.8,0
2003/8/4 10:15,34.7,0,50,0,29.5,0,75,0,29.5,0,26.8,0
2003/8/4 10:30,35.2,0,49,0,29.6,0,74.4,0,29.6,0,26.8,0
2003/8/4 10:45,36,0,45,0,30,0,73,0,29.9,0,26.9,0
2003/8/4 11:00,35.7,0,44,0,30,0,73.4,0,30,0,26.7,0
2003/8/4 11:15,35.4,0,45,0,30,0,71.6,0,30.1,0,26.7,0
2003/8/4 11:30,34.6,0,46,0,30.1,0,71.6,0,30.2,0,26.8,0
2003/8/4 11:45,35.1,0,46,0,30.2,0,71.3,0,30.2,0,26.8,0
2003/8/4 12:00,36.2,0,44,0,30.2,0,71.8,0,30.2,0,26.8,0
2003/8/4 12:15,36.4,0,39,0,30.4,0,70,0,30.4,0,26.9,0
2003/8/4 12:30,35.3,0,44,0,30.5,0,70.1,0,30.3,0,26.9,0
2003/8/4 12:45,34.9,0,44,0,30.5,0,70.5,0,30.4,0,26.9,0
2003/8/4 13:00,35.3,0,44,0,30.7,0,69.5,0,30.5,0,27,0
2003/8/4 13:15,34.7,0,44,0,30.7,0,69.4,0,30.5,0,27,0
2003/8/4 13:30,35.1,0,44,0,30.8,0,68.5,0,30.6,0,27.1,0
2003/8/4 13:45,35.5,0,43,0,30.9,0,68.1,0,30.7,0,27.1,0
2003/8/4 14:00,35.3,0,43,0,31,0,68.7,0,30.9,0,27.1,0
2003/8/4 14:15,35.1,0,44,0,31.3,0,68,0,31.1,0,27.2,0
2003/8/4 14:30,35.5,0,43,0,31.5,0,66.9,0,31.1,0,26.7,0
2003/8/4 14:45,35.6,0,43,0,31.7,0,66.4,0,31.2,0,26.8,0
2003/8/4 15:00,35.3,0,43,0,31.8,0,65.7,0,31.3,0,26.8,0
2003/8/4 15:15,35.2,0,43,0,31.7,0,66.3,0,31.3,0,26.8,0
2003/8/4 15:30,35.3,0,43,0,31.8,0,66.5,0,31.4,0,26.9,0
2003/8/4 15:45,35.7,0,42,0,32,0,65.9,0,31.4,0,26.9,0
2003/8/4 16:00,35.6,0,42,0,32.2,0,65.8,0,31.5,0,27,0
2003/8/4 16:15,35.6,0,42,0,32.2,0,65.2,0,31.5,0,27.1,0
2003/8/4 16:30,35.6,0,42,0,32.4,0,64.4,0,31.6,0,27.1,0
2003/8/4 16:45,34.8,0,44,0,32.4,0,64.1,0,31.6,0,27.2,0
2003/8/4 17:00,34.5,0,46,0,32.3,0,64.2,0,31.7,0,27.2,0
2003/8/4 17:15,34.1,0,48,0,32.3,0,65.2,0,31.6,0,27.3,0
2003/8/4 17:30,33.4,0,50,0,32.3,0,65.4,0,31.6,0,27.3,0
2003/8/4 17:45,33.4,0,51,0,32.2,0,65.2,0,31.5,0,27.4,0
2003/8/4 18:00,32.9,0,52,0,32.2,0,65.4,0,31.5,0,27.5,0
2003/8/4 18:15,32.6,0,53,0,32.1,0,65.7,0,31.4,0,27.5,0
2003/8/4 18:30,32.4,0,55,0,31.9,0,66.4,0,31.4,0,27.6,0
2003/8/4 18:45,31.9,0,56,0,31.9,0,66.9,0,31.3,0,27.2,0
2003/8/4 19:00,31.6,0,57,0,31.8,0,66.5,0,31.2,0,27.3,0
2003/8/4 19:15,30.9,0,59,0,31.8,0,66.2,0,31.1,0,27.3,0
2003/8/4 19:30,30.5,0,61,0,31.7,0,66.3,0,30.9,0,27.4,0
2003/8/4 19:45,30.3,0,63,0,31.6,0,66.8,0,30.8,0,27.4,0
2003/8/4 20:00,30.1,0,64,0,31.5,0,67,0,30.7,0,27.5,0
2003/8/4 20:15,30,0,63,0,31.6,0,67,0,30.5,0,27.5,0
2003/8/4 20:30,29.8,0,64,0,30,0,66.6,0,30.5,0,26.6,0
2003/8/4 20:45,29.6,0,65,0,29.3,0,59.4,0,30.4,0,26.7,0
2003/8/4 21:00,29.5,0,66,0,28.9,0,56.2,0,30.3,0,26.7,0
2003/8/4 21:15,29.5,0,67,0,28.4,0,58.3,0,30.2,0,26.8,0
2003/8/4 21:30,29.4,0,68,0,28.3,0,58.7,0,30.2,0,26.8,0
2003/8/4 21:45,29.3,0,69,0,28.3,0,63.5,0,30.2,0,26.9,0
2003/8/4 22:00,29.4,0,70,0,28.2,0,61.5,0,30.2,0,26.9,0
2003/8/4 22:15,29.4,0,69,0,28,0,60.3,0,30.1,0,27,0
2003/8/4 22:30,29.3,0,69,0,27.7,0,60.5,0,30,0,27,0
2003/8/4 22:45,29.3,0,69,0,27.5,0,59.2,0,30,0,27.1,0
2003/8/4 23:00,29.1,0,70,0,27.4,0,59.2,0,29.9,0,27.1,0
2003/8/4 23:15,29.1,0,70,0,27.1,0,60.2,0,29.8,0,27.2,0
2003/8/4 23:30,29,0,71,0,27.1,0,60.2,0,29.8,0,27.2,0
2003/8/4 23:45,29,0,71,0,27,0,60.5,0,29.7,0,27.3,0
2003/8/5 0:00,28.8,0,73,0,26.9,0,61.5,0,29.6,0,27.3,0
2003/8/5 0:15,28.5,0,76,0,26.7,0,60.4,0,29.5,0,27.3,0
2003/8/5 0:30,28.4,0,77,0,26.5,0,59.9,0,29.4,0,27.4,0
2003/8/5 0:45,28.3,0,78,0,27.6,0,63,0,29.3,0,27.4,0
2003/8/5 1:00,28.2,0,79,0,28.6,0,61.4,0,29.3,0,27,0
2003/8/5 1:15,28.1,0,81,0,28.9,0,63.6,0,29.2,0,27.1,0
2003/8/5 1:30,28,0,81,0,29.1,0,65.7,0,29.2,0,27.1,0
2003/8/5 1:45,27.9,0,81,0,29.2,0,67.3,0,29.2,0,27.1,0
2003/8/5 2:00,27.9,0,81,0,29.3,0,69.1,0,29.2,0,27.1,0
2003/8/5 2:15,28.1,0,79,0,29.4,0,68.6,0,29.1,0,27.2,0
2003/8/5 2:30,27.9,0,79,0,29.5,0,67.9,0,29.1,0,27.2,0
2003/8/5 2:45,27.8,0,81,0,29.6,0,67.6,0,29.1,0,27.3,0
2003/8/5 3:00,27.6,0,81,0,29.6,0,67.3,0,29.1,0,27.3,0
2003/8/5 3:15,27.4,0,82,0,29.5,0,67.8,0,29.1,0,27.3,0
2003/8/5 3:30,27.4,0,81,0,29.2,0,72.1,0,29.1,0,26.7,0
2003/8/5 3:45,27.4,0,81,0,29,0,73.1,0,29,0,26.7,0
2003/8/5 4:00,27.3,0,81,0,29,0,74,0,29,0,26.8,0
2003/8/5 4:15,27.1,0,82,0,28.9,0,74.9,0,29,0,26.8,0
2003/8/5 4:30,27.1,0,84,0,28.8,0,75.2,0,28.9,0,26.8,0
2003/8/5 4:45,27.2,0,84,0,28.8,0,75.5,0,28.9,0,26.9,0
2003/8/5 5:00,27.3,0,83,0,28.8,0,76.1,0,28.9,0,26.9,0
2003/8/5 5:15,27.1,0,82,0,28.6,0,77.7,0,28.8,0,26.9,0
2003/8/5 5:30,27,0,83,0,28.9,0,75.4,0,28.8,0,26.9,0
2003/8/5 5:45,26.9,0,83,0,28.9,0,74.8,0,28.8,0,27,0
2003/8/5 6:00,26.9,0,84,0,28.9,0,74.7,0,28.7,0,26.8,0
2003/8/5 6:15,27,0,84,0,28.5,0,77.7,0,28.7,0,27,0
2003/8/5 6:30,27.1,0,84,0,28.4,0,78.5,0,28.7,0,27,0
2003/8/5 6:45,27.4,0,84,0,28.3,0,79.8,0,28.6,0,27.1,0
2003/8/5 7:00,27.6,0,82,0,28.4,0,79.9,0,28.6,0,27.1,0
2003/8/5 7:15,27.9,0,81,0,28.4,0,79.8,0,28.6,0,27.1,0
2003/8/5 7:30,28.2,0,78,0,28.5,0,77.9,0,28.6,0,27.1,0
2003/8/5 7:45,28.6,0,77,0,28.7,0,76.3,0,28.6,0,27.1,0
2003/8/5 8:00,28.7,0,74,0,28.7,0,78,0,28.7,0,27.2,0
2003/8/5 8:15,29.3,0,73,0,28.8,0,79,0,28.7,0,27.2,0
2003/8/5 8:30,30.1,0,69,0,28.9,0,77.7,0,28.8,0,27.2,0
2003/8/5 8:45,30.7,0,66,0,29.2,0,77.3,0,28.9,0,27.2,0
2003/8/5 9:00,31.3,0,64,0,29.5,0,76.3,0,29,0,27.3,0
2003/8/5 9:15,32.1,0,60,0,29.6,0,76.1,0,29.1,0,27.3,0
2003/8/5 9:30,33.1,0,57,0,29.7,0,74.7,0,29.2,0,27,0
2003/8/5 9:45,34.1,0,54,0,29.8,0,73.5,0,29.3,0,27,0
2003/8/5 10:00,35.1,0,49,0,29.9,0,73.8,0,29.5,0,27.1,0
2003/8/5 10:15,35.2,0,49,0,30,0,73,0,29.7,0,26.8,0
2003/8/5 10:30,34.8,0,48,0,30,0,73.4,0,29.8,0,26.8,0
2003/8/5 10:45,33.7,0,50,0,30.1,0,73.5,0,29.8,0,26.8,0
2003/8/5 11:00,35.4,0,44,0,30.2,0,70.9,0,30,0,26.6,0
2003/8/5 11:15,36.4,0,42,0,30.4,0,69.7,0,30.1,0,26.6,0
2003/8/5 11:30,36.3,0,41,0,30.5,0,69.3,0,30.2,0,26.7,0
2003/8/5 11:45,36.2,0,42,0,30.7,0,70.4,0,30.3,0,26.7,0
2003/8/5 12:00,36.6,0,40,0,30.7,0,70.8,0,30.6,0,26.8,0
2003/8/5 12:15,37.5,0,39,0,30.8,0,69.3,0,30.8,0,26.8,0
2003/8/5 12:30,37.5,0,40,0,30.8,0,69.9,0,30.9,0,26.8,0
2003/8/5 12:45,36.9,0,40,0,31.2,0,69.1,0,30.9,0,26.9,0
2003/8/5 13:00,34.8,0,49,0,31.3,0,70.5,0,31,0,26.9,0
2003/8/5 13:15,34.8,0,48,0,31.3,0,71.2,0,31.1,0,27,0